When you browse on this site, cookies collect data to enhance your experience and personalize the content and advertising you see.
Visit our Privacy Policy to learn more. By continuing to use the site, you agree to this use of cookies and data.
  • En España
  • Lista de países
  • Para 7 días
  • Temperatura del agua
  • Mapa Satelital
  • El tiempo en el mapa
  • Informadores
  • user-avatar
    Iniciar sesión

    Tiempo cada hora San Luis

    Hoy, 21 Julio, Domingo

    Tiempo Temperatura Precipitaciones Viento Presión Humedad
    00:00 +13°C° 0 mm 5 mps 686 mmHg 76%
    01:00 +14°C° 0 mm 6 mps 685 mmHg 74%
    02:00 +15°C° 0 mm 8 mps 685 mmHg 71%
    03:00 +15°C° 0 mm 6 mps 685 mmHg 70%
    04:00 +14°C° 0 mm 5 mps 685 mmHg 70%
    05:00 +14°C° 0 mm 4 mps 684 mmHg 69%
    06:00 +13°C° 0 mm 4 mps 685 mmHg 74%
    07:00 +12°C° 0 mm 3 mps 686 mmHg 80%
    08:00 +11°C° 0 mm 3 mps 686 mmHg 85%
    09:00 +13°C° 0 mm 4 mps 687 mmHg 80%
    10:00 +14°C° 0 mm 5 mps 689 mmHg 75%
    11:00 +16°C° 0 mm 6 mps 690 mmHg 71%
    12:00 +15°C° 0 mm 7 mps 690 mmHg 63%
    13:00 +13°C° 0 mm 9 mps 690 mmHg 55%
    14:00 +12°C° 0 mm 10 mps 690 mmHg 47%
    15:00 +11°C° 0 mm 10 mps 691 mmHg 44%
    16:00 +11°C° 0 mm 10 mps 692 mmHg 41%
    17:00 +9°C° 0 mm 10 mps 692 mmHg 37%
    18:00 +8°C° 0 mm 9 mps 693 mmHg 35%
    19:00 +8°C° 0 mm 9 mps 694 mmHg 32%
    20:00 +7°C° 0 mm 8 mps 695 mmHg 30%
    21:00 +7°C° 0 mm 8 mps 696 mmHg 29%
    22:00 +8°C° 0 mm 7 mps 697 mmHg 29%
    23:00 +6°C° 0 mm 7 mps 697 mmHg 28%

    Mañana, 22 Julio, Lunes

    Tiempo Temperatura Precipitaciones Viento Presión Humedad
    00:00 +6°C° 0 mm 7 mps 698 mmHg 30%
    01:00 +7°C° 0 mm 6 mps 698 mmHg 31%
    02:00 +5°C° 0 mm 6 mps 698 mmHg 32%
    03:00 +5°C° 0 mm 6 mps 699 mmHg 33%
    04:00 +5°C° 0 mm 6 mps 699 mmHg 33%
    05:00 +4°C° 0 mm 6 mps 699 mmHg 33%
    06:00 +4°C° 0 mm 6 mps 700 mmHg 33%
    07:00 +4°C° 0 mm 6 mps 700 mmHg 33%
    08:00 +4°C° 0 mm 6 mps 701 mmHg 33%
    09:00 +5°C° 0 mm 7 mps 702 mmHg 30%
    10:00 +8°C° 0 mm 7 mps 702 mmHg 27%
    11:00 +9°C° 0 mm 7 mps 703 mmHg 24%
    12:00 +10°C° 0 mm 6 mps 703 mmHg 23%
    13:00 +10°C° 0 mm 6 mps 702 mmHg 22%
    14:00 +12°C° 0 mm 5 mps 702 mmHg 22%
    15:00 +10°C° 0 mm 5 mps 701 mmHg 23%
    16:00 +10°C° 0 mm 5 mps 701 mmHg 23%
    17:00 +9°C° 0 mm 5 mps 701 mmHg 24%
    18:00 +8°C° 0 mm 5 mps 701 mmHg 27%
    19:00 +7°C° 0 mm 5 mps 702 mmHg 30%
    20:00 +6°C° 0 mm 5 mps 702 mmHg 33%
    21:00 +5°C° 0 mm 5 mps 702 mmHg 34%
    22:00 +5°C° 0 mm 5 mps 703 mmHg 36%
    23:00 +5°C° 0 mm 5 mps 703 mmHg 37%

    Pasado mañana, 23 Julio, Martes

    Tiempo Temperatura Precipitaciones Viento Presión Humedad
    00:00 +5°C° 0 mm 5 mps 703 mmHg 38%
    01:00 +3°C° 0 mm 5 mps 703 mmHg 40%
    02:00 +3°C° 0 mm 5 mps 703 mmHg 41%
    03:00 +3°C° 0 mm 5 mps 703 mmHg 42%
    04:00 +4°C° 0 mm 4 mps 703 mmHg 42%
    05:00 +3°C° 0 mm 3 mps 703 mmHg 43%
    06:00 +3°C° 0 mm 3 mps 704 mmHg 44%
    07:00 +4°C° 0 mm 2 mps 704 mmHg 44%
    08:00 +4°C° 0 mm 2 mps 704 mmHg 45%
    09:00 +6°C° 0 mm 2 mps 705 mmHg 39%
    10:00 +8°C° 0 mm 2 mps 705 mmHg 33%
    11:00 +10°C° 0 mm 2 mps 705 mmHg 27%
    12:00 +12°C° 0 mm 1 mps 705 mmHg 26%
    13:00 +13°C° 0 mm 1 mps 705 mmHg 24%
    14:00 +14°C° 0 mm 1 mps 704 mmHg 23%
    15:00 +13°C° 0 mm 1 mps 704 mmHg 24%
    16:00 +13°C° 0 mm 1 mps 704 mmHg 25%
    17:00 +13°C° 0 mm 1 mps 704 mmHg 26%
    18:00 +10°C° 0 mm 2 mps 704 mmHg 29%
    19:00 +8°C° 0 mm 2 mps 704 mmHg 32%
    20:00 +7°C° 0 mm 3 mps 704 mmHg 35%
    21:00 +6°C° 0 mm 2 mps 705 mmHg 36%
    22:00 +6°C° 0 mm 2 mps 705 mmHg 37%
    23:00 +6°C° 0 mm 1 mps 705 mmHg 38%

    24 Julio, Miércoles

    Tiempo Temperatura Precipitaciones Viento Presión Humedad
    00:00 +6°C° 0 mm 1 mps 705 mmHg 39%
    01:00 +5°C° 0 mm 1 mps 705 mmHg 41%
    02:00 +4°C° 0 mm 0 mps 705 mmHg 42%
    03:00 +3°C° 0 mm 0 mps 705 mmHg 43%
    04:00 +3°C° 0 mm 0 mps 705 mmHg 44%
    05:00 +2°C° 0 mm 0 mps 705 mmHg 45%
    06:00 +4°C° 0 mm 1 mps 706 mmHg 45%
    07:00 +4°C° 0 mm 1 mps 706 mmHg 44%
    08:00 +5°C° 0 mm 1 mps 707 mmHg 44%
    09:00 +6°C° 0 mm 2 mps 708 mmHg 38%
    10:00 +9°C° 0 mm 2 mps 708 mmHg 32%
    11:00 +12°C° 0 mm 2 mps 709 mmHg 26%
    12:00 +13°C° 0 mm 2 mps 708 mmHg 25%
    13:00 +13°C° 0 mm 2 mps 708 mmHg 23%
    14:00 +14°C° 0 mm 2 mps 707 mmHg 22%
    15:00 +14°C° 0 mm 2 mps 707 mmHg 23%
    16:00 +13°C° 0 mm 1 mps 707 mmHg 24%
    17:00 +13°C° 0 mm 1 mps 707 mmHg 26%
    18:00 +11°C° 0 mm 1 mps 707 mmHg 29%
    19:00 +9°C° 0 mm 1 mps 707 mmHg 32%
    20:00 +8°C° 0 mm 1 mps 707 mmHg 35%
    21:00 +7°C° 0 mm 1 mps 707 mmHg 36%
    22:00 +6°C° 0 mm 2 mps 707 mmHg 37%
    23:00 +6°C° 0 mm 2 mps 707 mmHg 38%

    25 Julio, Jueves

    Tiempo Temperatura Precipitaciones Viento Presión Humedad
    00:00 +6°C° 0 mm 2 mps 707 mmHg 38%
    01:00 +5°C° 0 mm 3 mps 707 mmHg 39%
    02:00 +5°C° 0 mm 3 mps 707 mmHg 39%
    03:00 +4°C° 0 mm 3 mps 706 mmHg 40%
    04:00 +4°C° 0 mm 4 mps 706 mmHg 40%
    05:00 +4°C° 0 mm 4 mps 706 mmHg 41%
    06:00 +4°C° 0 mm 4 mps 706 mmHg 41%
    07:00 +4°C° 0 mm 4 mps 706 mmHg 41%
    08:00 +4°C° 0 mm 4 mps 706 mmHg 41%
    09:00 +7°C° 0 mm 4 mps 707 mmHg 36%
    10:00 +10°C° 0 mm 4 mps 707 mmHg 30%
    11:00 +13°C° 0 mm 5 mps 707 mmHg 25%
    12:00 +13°C° 0 mm 5 mps 706 mmHg 23%
    13:00 +14°C° 0 mm 5 mps 706 mmHg 22%
    14:00 +15°C° 0 mm 5 mps 705 mmHg 21%
    15:00 +14°C° 0 mm 4 mps 705 mmHg 23%
    16:00 +13°C° 0 mm 4 mps 704 mmHg 24%
    17:00 +13°C° 0 mm 4 mps 704 mmHg 26%
    18:00 +11°C° 0 mm 4 mps 704 mmHg 29%
    19:00 +10°C° 0 mm 4 mps 704 mmHg 32%
    20:00 +7°C° 0 mm 4 mps 704 mmHg 36%
    21:00 +7°C° 0 mm 4 mps 704 mmHg 36%
    22:00 +7°C° 0 mm 4 mps 704 mmHg 37%
    23:00 +6°C° 0 mm 5 mps 705 mmHg 37%

    26 Julio, Viernes

    Tiempo Temperatura Precipitaciones Viento Presión Humedad
    00:00 +6°C° 0 mm 4 mps 704 mmHg 39%
    01:00 +5°C° 0 mm 4 mps 704 mmHg 40%
    02:00 +5°C° 0 mm 4 mps 704 mmHg 41%
    03:00 +4°C° 0 mm 4 mps 704 mmHg 42%
    04:00 +4°C° 0 mm 3 mps 704 mmHg 43%
    05:00 +3°C° 0 mm 3 mps 703 mmHg 43%
    06:00 +4°C° 0 mm 3 mps 704 mmHg 43%
    07:00 +4°C° 0 mm 3 mps 704 mmHg 43%
    08:00 +4°C° 0 mm 3 mps 704 mmHg 42%
    09:00 +7°C° 0 mm 3 mps 705 mmHg 36%
    10:00 +10°C° 0 mm 4 mps 705 mmHg 31%
    11:00 +12°C° 0 mm 4 mps 705 mmHg 25%
    12:00 +13°C° 0 mm 4 mps 705 mmHg 23%
    13:00 +14°C° 0 mm 4 mps 704 mmHg 22%
    14:00 +15°C° 0 mm 4 mps 703 mmHg 21%
    15:00 +14°C° 0 mm 4 mps 703 mmHg 22%
    16:00 +14°C° 0 mm 3 mps 703 mmHg 24%
    17:00 +13°C° 0 mm 3 mps 703 mmHg 25%
    18:00 +12°C° 0 mm 2 mps 703 mmHg 29%
    19:00 +10°C° 0 mm 2 mps 703 mmHg 32%
    20:00 +8°C° 0 mm 2 mps 703 mmHg 35%
    21:00 +9°C° 0 mm 1 mps 703 mmHg 37%
    22:00 +8°C° 0 mm 1 mps 703 mmHg 38%
    23:00 +8°C° 0 mm 1 mps 703 mmHg 40%
    Mostrar más